Weather History for Fortuna, CA

Change the Weather History Date:

Monday, October 7, 2013

  Actual Average (KEKA) Record (KEKA)
Temperature  
Mean Temperature 53 °F 55 °F  
Max Temperature 62 °F 62 °F 76 °F (1969)
Min Temperature 44 °F 48 °F 41 °F (1955)
Degree Days  
Heating Degree Days 12 10  
Month to date heating degree days 68  
Since 1 July heating degree days 733  
Cooling Degree Days 0 0  
Month to date cooling degree days 0  
Year to date cooling degree days 0  
Growing Degree Days 3 (Base 50)    
Moisture  
Dew Point 45 °F    
Average Humidity 74    
Maximum Humidity 94    
Minimum Humidity 59    
Precipitation  
Precipitation 0.00 in 0.04 in 2.31 in (1889)
Month to date precipitation 0.25  
Year to date precipitation 24.61  
Since 1 July precipitation 1.33  
Snow  
Snow 0.00 in 0.00 in 0.00 in (2002)
Month to date snowfall 0.0  
Since 1 July snowfall 0.0  
Since 1 September snowfall 0.0  
Snow Depth -    
Sea Level Pressure  
Sea Level Pressure 30.10 in    
Wind  
Wind Speed 9 mph (NW)    
Max Wind Speed 21 mph    
Max Gust Speed 26 mph    
Visibility 10 miles    
Events      
T = Trace of Precipitation, MM = Missing Value Source: NWS Daily Summary

Daily Weather History Graph

Daily Weather History Graph

Search for Another Location

Airport:

Trip Planner

Search our weather history database for the weather conditions in past years. The results will help you decide how hot, cold, wet, or windy it might be!

Date:

Astronomy

Oct. 07, 2013 Rise Set
Actual Time 7:19 AM PDT 6:48 PM PDT
Civil Twilight 6:52 AM PDT 7:15 PM PDT
Nautical Twilight 6:20 AM PDT 7:47 PM PDT
Astronomical Twilight 5:48 AM PDT 8:18 PM PDT
Moon 10:16 AM PDT (10/7) 8:37 PM PDT (10/7)
Length of Visible Light 12h 23m
Length of Day
11h 28m
Waxing Crescent, 9% of the Moon is Illuminated
Oct 7
Waxing Crescent
Oct 11
First Quarter
Oct 18
Full
Oct 26
Last Quarter
Nov 3
New

Hourly Weather History & Observations

Time (PDT) Temp. Windchill Dew Point Humidity Pressure Visibility Wind Dir Wind Speed Gust Speed Precip Events Conditions
12:15 AM 48.2 °F - 41.0 °F 76% 30.06 in 10.0 mi SSE 8.1 mph - N/A   Clear
12:35 AM 48.2 °F - 41.0 °F 76% 30.06 in 10.0 mi SE 8.1 mph - N/A   Clear
12:55 AM 46.4 °F - 39.2 °F 76% 30.07 in 10.0 mi Calm Calm - N/A   Clear
1:15 AM 46.4 °F 43.5 °F 41.0 °F 81% 30.06 in 10.0 mi SSE 5.8 mph - N/A   Clear
1:35 AM 48.2 °F - 39.2 °F 71% 30.06 in 10.0 mi SE 6.9 mph - N/A   Clear
1:55 AM 48.2 °F - 39.2 °F 71% 30.06 in 10.0 mi SE 8.1 mph - N/A   Clear
2:15 AM 46.4 °F 42.4 °F 39.2 °F 76% 30.06 in 10.0 mi SE 8.1 mph - N/A   Clear
2:35 AM 46.4 °F 44.3 °F 39.2 °F 76% 30.06 in 10.0 mi SSE 4.6 mph - N/A   Clear
2:55 AM 46.4 °F - 37.4 °F 71% 30.07 in 10.0 mi Calm Calm - N/A   Clear
3:15 AM 46.4 °F 45.2 °F 39.2 °F 76% 30.07 in 10.0 mi South 3.5 mph - N/A   Clear
3:35 AM 48.2 °F - 39.2 °F 71% 30.07 in 10.0 mi South 3.5 mph - N/A   Clear
3:55 AM 48.2 °F - 39.2 °F 71% 30.07 in 10.0 mi South 4.6 mph - N/A   Clear
4:15 AM 46.4 °F 43.5 °F 39.2 °F 76% 30.07 in 10.0 mi SSE 5.8 mph - N/A   Clear
4:35 AM 44.6 °F 41.4 °F 39.2 °F 81% 30.07 in 10.0 mi SE 5.8 mph - N/A   Clear
4:55 AM 44.6 °F 41.4 °F 39.2 °F 81% 30.07 in 10.0 mi SE 5.8 mph - N/A   Clear
5:15 AM 46.4 °F 44.3 °F 39.2 °F 76% 30.07 in 10.0 mi SSE 4.6 mph - N/A   Clear
5:35 AM 46.4 °F 44.3 °F 39.2 °F 76% 30.08 in 10.0 mi SE 4.6 mph - N/A   Clear
5:55 AM 46.4 °F 43.5 °F 39.2 °F 76% 30.08 in 10.0 mi SE 5.8 mph - N/A   Clear
6:15 AM 46.4 °F 42.9 °F 39.2 °F 76% 30.08 in 10.0 mi SE 6.9 mph - N/A   Clear
6:35 AM 46.4 °F 42.9 °F 39.2 °F 76% 30.09 in 10.0 mi ESE 6.9 mph - N/A   Clear
6:55 AM 46.4 °F 44.3 °F 39.2 °F 76% 30.09 in 10.0 mi SE 4.6 mph - N/A   Clear
7:15 AM 44.6 °F 40.7 °F 39.2 °F 81% 30.10 in 10.0 mi SE 6.9 mph - N/A   Clear
7:35 AM 44.6 °F 41.4 °F 39.2 °F 81% 30.10 in 10.0 mi SSE 5.8 mph - N/A   Mostly Cloudy
7:55 AM 46.4 °F 42.9 °F 39.2 °F 76% 30.10 in 10.0 mi SE 6.9 mph - N/A   Overcast
8:15 AM 48.2 °F - 41.0 °F 76% 30.11 in 10.0 mi SE 3.5 mph - N/A   Overcast
8:35 AM 50.0 °F - 44.6 °F 82% 30.12 in 10.0 mi Calm Calm - N/A   Overcast
8:55 AM 50.0 °F - 44.6 °F 82% 30.13 in 10.0 mi West 4.6 mph - N/A   Overcast
9:15 AM 51.8 °F - 46.4 °F 82% 30.13 in 10.0 mi West 6.9 mph - N/A   Overcast
9:35 AM 53.6 °F - 48.2 °F 82% 30.14 in 10.0 mi WNW 8.1 mph - N/A   Mostly Cloudy
9:55 AM 53.6 °F - 48.2 °F 82% 30.14 in 10.0 mi NW 9.2 mph - N/A   Mostly Cloudy
10:15 AM 53.6 °F - 48.2 °F 82% 30.15 in 10.0 mi NW 6.9 mph - N/A   Partly Cloudy
10:35 AM 55.4 °F - 50.0 °F 82% 30.14 in 10.0 mi North 8.1 mph - N/A   Clear
10:55 AM 57.2 °F - 50.0 °F 77% 30.14 in 10.0 mi NW 6.9 mph - N/A   Clear
11:15 AM 57.2 °F - 48.2 °F 72% 30.14 in 10.0 mi NNW 12.7 mph - N/A   Clear
11:35 AM 59.0 °F - 48.2 °F 67% 30.14 in 10.0 mi North 8.1 mph - N/A   Clear
11:55 AM 59.0 °F - 48.2 °F 67% 30.13 in 10.0 mi NW 9.2 mph - N/A   Clear
12:15 PM 59.0 °F - 48.2 °F 67% 30.13 in 10.0 mi NNW 15.0 mph 21.9 mph N/A   Scattered Clouds
12:35 PM 60.8 °F - 48.2 °F 63% 30.13 in 10.0 mi NW 13.8 mph 18.4 mph N/A   Mostly Cloudy
12:55 PM 60.8 °F - 48.2 °F 63% 30.12 in 10.0 mi NNW 13.8 mph - N/A   Overcast
1:15 PM 62.6 °F - 48.2 °F 59% 30.12 in 10.0 mi NNW 15.0 mph - N/A   Overcast
1:35 PM 62.6 °F - 48.2 °F 59% 30.11 in 10.0 mi NNW 16.1 mph 21.9 mph N/A   Scattered Clouds
1:55 PM 62.6 °F - 50.0 °F 63% 30.11 in 10.0 mi NNW 17.3 mph - N/A   Partly Cloudy
2:15 PM 62.6 °F - 50.0 °F 63% 30.11 in 10.0 mi NNW 13.8 mph 25.3 mph N/A   Mostly Cloudy
2:35 PM 62.6 °F - 48.2 °F 59% 30.10 in 10.0 mi NNW 18.4 mph 23.0 mph N/A   Mostly Cloudy
2:55 PM 62.6 °F - 48.2 °F 59% 30.11 in 10.0 mi NNW 18.4 mph 26.5 mph N/A   Partly Cloudy
3:15 PM 62.6 °F - 48.2 °F 59% 30.11 in 10.0 mi NNW 17.3 mph 25.3 mph N/A   Clear
3:35 PM 60.8 °F - 48.2 °F 63% 30.10 in 10.0 mi NNW 17.3 mph 23.0 mph N/A   Partly Cloudy
3:55 PM 60.8 °F - 46.4 °F 59% 30.10 in 10.0 mi NNW 20.7 mph - N/A   Clear
4:15 PM 60.8 °F - 46.4 °F 59% 30.10 in 10.0 mi NNW 19.6 mph - N/A   Clear
4:35 PM 59.0 °F - 46.4 °F 63% 30.10 in 10.0 mi NNW 16.1 mph 26.5 mph N/A   Clear
4:55 PM 59.0 °F - 46.4 °F 63% 30.10 in 10.0 mi NNW 17.3 mph 24.2 mph N/A   Clear
5:15 PM 59.0 °F - 48.2 °F 67% 30.10 in 10.0 mi NNW 18.4 mph 23.0 mph N/A   Clear
5:35 PM 57.2 °F - 48.2 °F 72% 30.10 in 10.0 mi NNW 12.7 mph - N/A   Clear
5:55 PM 57.2 °F - 48.2 °F 72% 30.10 in 10.0 mi NNW 15.0 mph 20.7 mph N/A   Partly Cloudy
6:15 PM 57.2 °F - 46.4 °F 67% 30.10 in 10.0 mi NNW 17.3 mph 23.0 mph N/A   Clear
6:35 PM 55.4 °F - 46.4 °F 72% 30.09 in 10.0 mi NNW 18.4 mph - N/A   Clear
6:55 PM 55.4 °F - 46.4 °F 72% 30.10 in 10.0 mi NNW 13.8 mph - N/A   Clear
7:15 PM 55.4 °F - 46.4 °F 72% 30.10 in 10.0 mi NNW 18.4 mph 23.0 mph N/A   Clear
7:35 PM 55.4 °F - 46.4 °F 72% 30.10 in 10.0 mi NNW 13.8 mph - N/A   Clear
7:55 PM 53.6 °F - 48.2 °F 82% 30.11 in 10.0 mi NNW 15.0 mph 25.3 mph N/A   Partly Cloudy
8:15 PM 53.6 °F - 48.2 °F 82% 30.11 in 10.0 mi NNW 9.2 mph 20.7 mph N/A   Mostly Cloudy
8:35 PM 53.6 °F - 48.2 °F 82% 30.10 in 10.0 mi NW 12.7 mph 20.7 mph N/A   Overcast
8:55 PM 53.6 °F - 48.2 °F 82% 30.10 in 10.0 mi NNW 11.5 mph 20.7 mph N/A   Overcast
9:15 PM 53.6 °F - 48.2 °F 82% 30.10 in 10.0 mi NW 9.2 mph - N/A   Mostly Cloudy
9:35 PM 53.6 °F - 48.2 °F 82% 30.10 in 10.0 mi NW 10.4 mph - N/A   Scattered Clouds
9:55 PM 53.6 °F - 48.2 °F 82% 30.10 in 10.0 mi NW 11.5 mph - N/A   Unknown
10:15 PM 53.6 °F - 48.2 °F 82% 30.10 in 10.0 mi NW 11.5 mph - N/A   Unknown
10:35 PM 53.6 °F - 50.0 °F 88% 30.10 in 10.0 mi NW 10.4 mph - N/A   Unknown
10:55 PM 53.6 °F - 50.0 °F 88% 30.10 in 10.0 mi NW 10.4 mph - N/A   Unknown
11:15 PM 51.8 °F - 48.2 °F 88% 30.10 in 10.0 mi NW 8.1 mph - N/A   Unknown
11:35 PM 51.8 °F - 50.0 °F 94% 30.09 in 10.0 mi WNW 9.2 mph - N/A   Unknown
11:55 PM 50.0 °F - 48.2 °F 94% 30.09 in 9.0 mi West 9.2 mph - N/A   Unknown